Tracking 26922 objects as of 30-Jan-2023
HD Live streaming from Space Station
objects crossing your sky now

SL-12 R/B(AUX MOTOR)

Track SL-12 R/B(AUX MOTOR) now!
10-day predictions


NORAD ID: 15338
Int'l Code: 1984-106F
Perigee: 833.8 km
Apogee: 841.9 km
Inclination: 66.6 °
Period: 101.5 minutes
Semi major axis: 7208 km
RCS: 0.8334 m2 (medium)
Launch date: September 28, 1984
Source: Commonwealth of Independent States (former USSR) (CIS)
Launch site: TYURATAM MISSILE AND SPACE COMPLEX (TTMTR)

Note: This is a ROCKET BODY
Your satellite tracking list
Your tracking list is empty




NASA's NSSDC Master Catalog

Two Line Element Set (TLE):
1 15338U 84106F   23029.78515930 -.00000097  00000-0 -60802-5 0  9992
2 15338  66.5699 214.2496 0005626  69.6655 290.5040 14.18416480983105
Source of the keplerian elements: AFSPC